Location: Unspecified
(34.4950°S, 58.5160°W)
Time: 15:19:41
(UTC+00:00)

Cosmos 1655 Rocket - Pass Details

Date: 07 July 2022
Orbit: 971 x 1005 km, 83.0° (Epoch: 11 August)

Event Time Altitude Azimuth Distance (km) Brightness Sun altitude
Rises 09:07:30 0° 175° (S) 3,739 7.0 -22.8°
Reaches altitude 10° 09:10:24 10° 164° (SSE) 2,777 6.4 -22.2°
Maximum altitude 09:15:56 31° 104° (ESE) 1,678 5.8 -21.1°
Drops below altitude 10° 09:21:22 10° 43° (NE) 2,730 7.2 -20.0°
Sets 09:24:11 0° 33° (NNE) 3,665 7.7 -19.4°
